Tracking 25710 objects as of 5-Jul-2022
HD Live streaming from Space Station
objects crossing your sky now

STARLINK-1793

Track STARLINK-1793 now!
10-day predictions
STARLINK-1793 is classified as:


NORAD ID: 46694
Int'l Code: 2020-073AA
Perigee: 553.3 km
Apogee: 555.4 km
Inclination: 53.1 °
Period: 95.6 minutes
Semi major axis: 6925 km
RCS: Unknown
Launch date: October 18, 2020
Source: United States (US)
Launch site: AIR FORCE EASTERN TEST RANGE (AFETR)
aabbcc
Your satellite tracking list
Your tracking list is empty




NASA's NSSDC Master Catalog

Two Line Element Set (TLE):
1 46694U 20073AA  22186.11971124 -.00000021  00000-0  17489-4 0  9993
2 46694  53.0552 133.1527 0001551  97.0130 263.1036 15.06402927 95387
Source of the keplerian elements: AFSPC